Temperature
14 14 14 14 14 14 14 14 14 15 14 14 14 14 14 14 14 15 14 14 14 14 15 15 15 14 15 15 14 14 14 14 14 14 14 14 14 14 15 15 14 14 14
14 14 14 14 14 14 14 14 14 14 14 14 14 14 14 14 14 14 14 14 14 14 14 14 14 14 14 14 14 14 14 14 14 14 14 14 14 14 14 14 14 14 14
14 14 14 14 14 14 14 14 14 14 14 14 14 14 14 14 14 14 14 14 14 14 14 14 14 14 14 14 14 14 14 14 14 14 14 14 14 14 14 14 14 14 14
14 14 13 13 14 14 14 14 14 14 14 14 14 14 14 14 14 14 14 14 14 14 14 14 14 14 14 14 14 14 14 14 14 14 14 14 13 14 14 14 13 14 13
13 13 13 13 13 13 14 14 14 14 14 14 14 14 14 14 14 14 14 14 14 14 14 14 14 14 13 13 14 14 14 14 13 13 13 13 13 13 13 13 13 13 13
13 13 13 13 13 13 13 13 13 13 14 14 14 14 14 14 14 14 14 14 14 14 13 13 13 13 13 13 13 13 13 13 13 13 13 13 13 13 13 13 13 13 13
13 13 13 13 13 13 13 13 13 13 13 13 13 13 13 13 13 13 13 13 13 13 13 13 13 13 13 13 13 13 13 13 13 13 13 13 13 13 12 12 13 12 12
13 13 13 13 13 13 13 13 13 13 13 13 13 13 13 13 13 13 13 13 13 13 13 13 13 13 13 13 13 13 13 13 13 13 13 12 12 12 12 12 12 12 12
12 12 12 12 12 12 13 13 13 13 13 13 13 13 13 13 13 13 13 13 13 13 12 12 12 12 13 13 13 13 12 12 12 12 12 12 12 12 12 12 12 12 11
12 12 12 12 12 12 12 12 12 12 12 13 13 12 12 12 12 12 12 12 12 12 12 12 12 12 12 12 12 12 12 12 12 12 12 12 12 12 11 11 11 11 11
11 11 11 12 12 12 12 12 12 12 12 12 12 12 12 12 12 12 12 12 12 12 12 12 12 12 12 12 12 12 12 12 12 12 11 11 11 11 11 11 11 11 11
11 11 11 11 11 11 11 11 11 11 11 12 12 12 12 12 12 12 12 12 11 11 11 12 12 12 12 12 12 12 12 11 11 11 11 11 11 11 11 11 11 11 10
11 11 11 11 11 11 11 11 11 11 11 11 11 11 11 11 11 11 11 11 11 11 11 11 11 11 11 11 11 11 11 11 11 11 11 11 10 10 10 10 10 10 10
10 11 11 11 11 11 11 11 11 11 11 11 11 11 11 11 11 11 11 11 11 11 11 11 11 11 11 11 11 11 11 11 11 11 10 10 10 10 10 10 10 10 10
10 10 10 10 10 10 10 10 10 10 10 10 10 10 10 11 11 11 11 11 11 11 11 11 11 10 10 10 10 10 10 10 10 10 10 10 10 10 9 9 9 9 9
10 10 10 10 10 10 10 10 10 10 10 10 10 10 10 10 10 10 10 10 10 10 10 10 10 10 10 10 10 10 10 10 10 10 10 9 9 9 9 9 9 9 9
9 9 9 9 9 9 10 9 9 9 9 9 9 9 9 9 9 9 9 10 10 10 10 10 9 9 9 9 9 9 9 9 9 9 9 9 9 9 9 8 9 9 9
9 9 9 9 9 9 9 9 9 9 9 9 9 9 9 9 9 9 9 9 9 9 9 9 9 9 9 9 9 8 8 8 8 8 8 8 8 8 8 8 8 8 8
8 8 9 9 9 9 9 8 8 8 8 8 8 8 8 9 8 9 9 9 9 9 8 9 8 8 8 8 8 8 8 8 8 8 8 8 8 8 8 8 8 8 8
8 8 8 8 8 8 8 8 8 8 8 8 8 8 8 8 8 8 8 8 8 8 8 8 8 8 8 8 7 7 7 7 7 7 7 7 7 7 7 7 7 7 7
7 7 7 7 7 7 7 7 7 7 7 7 7 7 7 8 8 8 8 8 8 8 8 8 8 7 7 7 7 6 6 6 7 7 7 7 7 7 7 7 7 7 7
6 7 7 7 7 7 7 7 7 7 7 7 7 7 7 7 7 7 7 7 7 7 7 7 7 7 7 6 6 6 5 6 6 6 6 6 6 6 7 7 7 7 7
6 6 6 6 6 6 6 6 6 6 6 6 6 6 6 6 6 7 7 7 7 7 7 7 7 7 7 6 6 6 5 5 5 5 6 6 6 6 6 6 6 6 6
5 5 6 6 6 6 5 6 6 6 5 6 6 6 6 6 6 6 6 6 6 6 6 6 6 6 6 6 5 5 6 6 5 5 5 6 6 6 6 6 6 6 6
5 5 5 5 5 5 5 5 5 5 5 5 5 5 5 5 5 5 5 5 5 5 6 6 6 6 6 5 5 5 5 5 5 5 5 5 6 6 6 6 6 5 5
4 4 4 5 5 5 4 4 4 4 4 4 5 5 5 5 5 5 5 5 5 5 5 5 5 5 5 5 5 5 5 5 5 5 5 5 5 5 5 5 5 5 5
Wind_Speed
2 2 5 8 9 9 10 10 11 12 12 13 13 13 13 14 14 14 14 15 15 16 17 17 17 18 18 18 19 19 19 19 20 19 19 20 20 20 20 20 20 19 21
3 5 6 9 9 10 10 10 11 11 12 12 13 13 13 13 14 14 14 14 15 16 17 17 17 17 18 18 18 19 19 19 19 20 19 19 19 19 20 20 19 18 20
4 5 6 9 10 10 10 10 11 11 12 12 13 13 13 13 13 14 14 14 15 16 16 16 17 17 18 18 18 18 19 19 19 18 17 16 17 18 19 19 19 20 20
5 5 6 9 11 11 11 11 11 11 11 12 12 13 13 13 13 13 14 14 15 15 15 16 16 17 17 17 17 18 18 18 18 17 15 15 15 17 19 19 19 19 19
4 5 6 10 11 11 11 11 11 11 11 12 12 12 13 13 13 13 14 14 14 15 15 16 16 17 17 17 17 17 17 18 17 16 15 15 14 17 18 18 18 18 18
4 5 6 10 11 11 11 11 11 11 11 12 12 12 12 13 13 13 13 14 14 14 15 16 16 16 17 17 17 17 17 17 16 15 14 14 14 16 17 17 17 18 18
3 4 6 9 10 11 11 10 10 11 11 12 12 12 12 13 13 13 13 13 13 14 14 15 16 16 16 16 17 17 17 16 15 14 13 13 14 16 17 17 17 17 17
4 4 5 8 9 10 11 11 10 10 11 11 12 12 12 13 13 12 12 12 13 13 14 15 15 16 16 16 16 16 15 14 14 13 12 12 14 15 16 16 16 16 17
5 4 4 6 7 8 10 10 10 10 10 11 12 12 12 12 12 12 12 12 12 13 13 14 14 15 15 15 15 15 15 14 13 12 11 12 14 15 15 15 15 15 15
4 4 4 5 6 6 7 9 10 10 11 11 11 12 12 12 12 12 11 11 11 12 13 14 14 14 14 14 15 14 14 13 12 12 11 11 13 14 14 14 14 14 15
3 3 4 5 5 5 6 8 9 10 11 11 11 12 12 11 11 11 11 11 11 12 13 14 14 14 14 13 14 13 12 11 11 10 10 11 12 13 14 14 14 14 14
1 1 3 4 4 4 5 6 7 8 9 9 10 11 11 11 11 11 11 11 11 12 13 13 13 12 12 11 12 11 10 10 10 9 9 11 11 12 13 13 13 13 13
2 1 2 3 4 4 4 5 5 6 7 9 10 10 10 10 10 10 9 10 10 11 11 11 11 11 10 10 10 10 9 9 8 8 8 9 10 11 12 12 12 12 12
1 1 1 2 3 4 4 4 4 5 6 6 8 9 9 7 7 7 7 7 8 8 9 9 9 10 10 10 10 9 9 8 8 7 7 9 9 10 11 11 11 11 10
1 1 1 2 2 3 4 3 3 4 5 6 7 8 9 7 6 6 6 6 7 7 8 8 8 8 8 8 8 8 8 8 8 8 7 8 8 9 9 10 10 10 9
2 1 1 1 2 2 3 3 3 4 5 6 6 7 8 8 7 6 6 6 5 6 7 8 8 7 6 7 7 7 7 7 7 8 7 7 8 8 8 8 9 9 8
3 2 2 2 2 2 3 3 3 4 5 5 5 7 7 8 8 7 6 5 5 6 7 8 8 7 6 6 5 6 6 7 7 7 7 7 7 7 7 7 7 7 7
3 3 2 2 2 2 2 3 3 3 4 4 6 6 7 7 8 7 6 4 5 7 6 6 5 4 4 4 3 4 5 6 7 7 7 7 7 6 6 6 6 6 6
4 4 3 2 2 2 2 2 3 3 3 4 5 6 6 7 7 7 6 5 6 6 5 5 4 4 4 4 3 3 4 5 5 6 6 6 6 6 6 6 6 6 5
3 4 3 3 3 3 2 2 2 3 3 3 3 4 6 6 7 7 6 6 7 5 3 4 4 3 4 4 4 3 3 3 4 4 4 5 5 5 6 5 5 5 5
1 3 3 4 3 3 3 3 3 2 2 2 2 3 5 6 7 7 6 6 6 4 4 5 4 5 3 3 3 2 2 2 2 2 3 3 4 4 5 5 4 4 4
3 4 4 4 4 4 3 3 2 2 2 2 2 2 3 5 6 7 6 5 5 4 4 4 5 3 2 2 3 3 1 1 1 1 1 1 2 2 3 3 4 4 3
2 4 5 4 4 4 4 3 2 2 1 1 2 1 2 4 5 6 7 6 5 5 5 5 5 5 5 3 2 3 3 3 1 1 1 0 0 1 1 1 2 2 1
4 3 4 4 4 4 4 5 5 4 3 3 2 2 2 3 5 5 6 6 6 5 5 5 5 3 6 5 2 1 1 3 3 1 1 1 1 1 1 1 1 1 1
2 2 3 4 4 4 5 6 6 4 3 2 2 3 2 2 3 5 5 5 5 4 5 6 5 4 4 5 4 3 2 1 2 2 2 2 2 2 2 2 3 3 3
1 1 1 3 4 4 5 6 6 6 5 4 4 4 3 2 2 3 4 5 5 5 5 5 6 6 5 5 4 3 3 3 3 3 3 3 3 3 2 3 3 4 4
Wind_Direction
219 212 163 139 126 117 111 104 102 99 99 97 95 95 95 93 90 88 85 84 84 88 92 93 94 93 92 91 89 87 85 82 81 81 81 82 83 83 82 79 77 78 79
175 173 157 142 132 125 117 110 106 104 104 99 96 93 95 95 92 90 89 88 87 88 90 91 92 94 94 92 91 89 87 84 81 79 78 79 81 83 83 82 81 82 81
134 154 150 141 135 129 122 117 113 110 107 102 98 95 93 96 95 93 92 91 90 90 90 91 92 93 94 93 91 90 88 85 82 78 76 75 80 83 84 84 84 83 82
130 141 142 140 138 131 124 119 115 112 108 104 100 97 95 95 98 97 95 93 93 92 92 93 93 93 92 92 92 91 88 85 80 76 73 74 79 84 85 85 85 85 83
114 127 140 140 138 134 127 120 116 112 109 106 101 98 96 94 95 99 97 94 93 93 94 94 95 94 93 93 92 92 90 85 79 75 72 73 79 84 85 85 85 86 85
103 118 137 143 137 132 128 124 120 115 110 107 103 100 97 96 93 97 98 96 95 95 96 96 97 95 95 96 94 93 91 86 80 74 72 74 80 85 86 87 86 86 87
112 112 130 140 139 134 129 125 122 118 114 110 106 101 99 97 95 93 101 101 99 99 99 98 99 98 97 98 96 93 90 85 81 76 73 75 82 87 87 88 88 87 87
106 94 117 132 136 136 133 129 126 122 118 115 111 106 103 99 98 94 97 104 104 104 103 103 101 101 101 100 97 93 88 85 84 80 76 79 85 88 88 88 88 88 87
85 80 85 116 126 135 136 133 129 126 122 117 112 108 104 102 100 99 93 101 105 107 106 106 103 103 103 103 99 94 89 84 84 82 82 85 89 88 88 87 88 88 88
73 64 65 89 106 114 127 134 129 127 123 118 114 109 104 102 100 98 94 92 104 108 108 107 105 105 103 100 98 93 87 82 83 84 85 91 92 92 91 89 88 88 88
74 51 51 67 79 102 120 132 128 127 123 117 112 106 101 97 96 93 92 88 96 106 107 105 105 103 100 95 92 90 84 83 87 86 91 96 95 95 94 91 90 89 88
145 64 47 64 70 84 113 122 124 125 119 111 108 104 101 98 96 93 92 88 92 101 103 103 99 97 92 88 86 85 81 81 84 85 95 100 100 99 99 97 94 91 89
167 92 51 61 78 82 87 106 115 117 113 112 111 110 107 100 95 90 86 84 84 93 94 96 91 88 89 88 86 83 78 76 77 84 95 104 105 103 101 100 97 95 93
121 106 66 51 74 88 93 100 112 118 118 119 123 120 114 105 97 94 88 85 82 90 94 93 92 90 88 88 88 83 77 75 72 75 88 100 105 104 104 102 100 100 99
148 112 82 69 84 98 100 100 109 120 127 131 130 128 125 121 114 106 98 90 90 92 98 100 99 96 90 87 86 84 76 73 72 71 79 91 100 107 107 106 103 100 103
188 190 156 124 102 108 106 110 115 125 134 133 134 135 132 133 127 119 109 100 98 99 107 108 108 104 95 91 83 81 78 77 75 71 71 79 92 100 108 111 105 98 99
202 196 182 170 119 131 127 122 122 130 137 136 138 139 138 137 133 128 123 116 116 114 112 110 105 100 94 88 80 76 77 76 76 74 71 74 79 84 93 105 106 101 95
198 193 190 180 152 139 132 129 126 126 128 135 139 138 136 137 138 133 128 128 130 124 118 123 119 114 103 96 87 72 69 71 72 76 74 74 75 76 82 89 95 99 106
204 193 191 177 172 165 145 130 126 126 124 131 137 141 140 140 143 138 135 135 134 125 120 131 126 127 125 112 97 73 60 62 64 74 71 71 78 82 82 80 82 83 89
208 191 186 181 177 164 148 127 120 113 109 115 123 140 145 147 148 142 137 140 137 133 126 133 132 114 126 123 105 76 52 51 59 63 65 67 73 79 85 85 81 73 75
206 193 193 190 188 165 166 172 173 180 168 142 115 118 138 145 148 144 145 149 147 151 153 145 138 128 117 121 106 85 38 39 50 48 56 66 61 69 81 86 85 76 65
220 212 199 200 197 188 184 181 179 175 173 166 146 124 137 148 156 153 149 160 158 153 148 150 144 145 144 142 130 129 113 352 345 0 37 67 58 74 80 78 82 79 72
233 231 212 208 204 195 179 150 125 114 116 147 169 176 156 160 156 160 158 156 164 165 170 169 168 159 165 174 146 148 156 200 233 285 236 182 121 106 119 115 106 95 86
244 244 216 202 200 194 177 170 164 178 195 204 195 194 173 167 165 160 162 163 167 170 176 177 172 173 165 174 173 142 147 148 161 217 265 245 253 225 219 220 199 197 193
248 241 221 196 198 190 186 184 182 191 197 175 166 179 180 174 174 167 166 163 171 175 182 182 173 174 179 177 173 164 143 127 151 168 217 240 258 243 232 226 215 215 210
257 250 247 199 205 195 190 190 191 195 185 174 183 194 198 192 188 175 172 177 181 181 185 191 187 182 191 184 179 174 169 170 183 180 197 219 232 244 244 226 215 218 215
Height
1526 1528 1529 1531 1533 1534 1535 1536 1537 1538 1538 1539 1539 1540 1540 1540 1541 1541 1541 1540 1540 1540 1540 1542 1543 1544 1545 1546 1547 1548 1548 1549 1549 1550 1550 1551 1551 1552 1552 1553 1553 1554 1555
1525 1527 1529 1531 1533 1534 1535 1536 1537 1538 1539 1539 1540 1540 1541 1541 1542 1542 1542 1542 1542 1543 1543 1544 1545 1546 1547 1548 1549 1549 1550 1551 1551 1552 1552 1553 1554 1554 1555 1555 1556 1556 1557
1525 1527 1529 1531 1533 1534 1536 1537 1538 1538 1539 1540 1541 1541 1542 1542 1543 1543 1543 1544 1544 1544 1545 1546 1547 1548 1549 1550 1550 1551 1552 1553 1553 1554 1555 1555 1556 1557 1557 1558 1558 1559 1559
1525 1527 1529 1531 1533 1534 1536 1537 1538 1538 1539 1540 1541 1542 1542 1543 1543 1544 1544 1545 1546 1546 1547 1548 1548 1549 1550 1551 1552 1553 1554 1555 1555 1556 1557 1558 1558 1559 1560 1560 1561 1561 1562
1526 1527 1529 1531 1533 1534 1535 1537 1538 1538 1539 1540 1541 1542 1543 1543 1544 1545 1545 1546 1547 1547 1548 1549 1549 1550 1551 1552 1554 1555 1555 1556 1557 1558 1559 1560 1560 1561 1562 1562 1563 1563 1564
1525 1527 1529 1531 1533 1534 1535 1536 1538 1539 1540 1540 1541 1542 1543 1544 1544 1545 1546 1547 1547 1548 1549 1549 1550 1551 1553 1554 1555 1556 1557 1558 1559 1560 1561 1561 1562 1563 1563 1564 1564 1565 1565
1525 1527 1529 1531 1532 1534 1535 1536 1537 1539 1540 1541 1541 1542 1543 1544 1545 1546 1546 1547 1548 1549 1550 1550 1551 1552 1554 1555 1556 1557 1558 1559 1560 1561 1562 1563 1564 1564 1565 1565 1566 1566 1567
1525 1526 1528 1530 1532 1533 1535 1536 1537 1538 1540 1541 1541 1542 1543 1544 1545 1546 1547 1548 1549 1549 1550 1551 1552 1553 1554 1556 1557 1558 1559 1560 1562 1562 1563 1564 1565 1566 1566 1567 1567 1568 1568
1524 1526 1528 1529 1531 1533 1534 1535 1537 1538 1539 1540 1541 1542 1543 1544 1546 1546 1547 1548 1549 1550 1551 1552 1553 1554 1555 1556 1558 1559 1560 1561 1562 1563 1564 1565 1566 1567 1568 1568 1569 1569 1570
1524 1525 1527 1528 1530 1531 1533 1535 1536 1538 1539 1540 1541 1542 1543 1544 1546 1547 1547 1548 1549 1550 1551 1552 1553 1555 1556 1557 1558 1560 1561 1562 1563 1564 1565 1566 1567 1568 1568 1569 1570 1570 1571
1522 1524 1526 1527 1529 1530 1532 1533 1535 1537 1538 1539 1541 1542 1543 1544 1545 1547 1548 1548 1549 1550 1551 1552 1553 1555 1556 1557 1559 1560 1561 1562 1563 1565 1566 1567 1568 1568 1569 1570 1571 1571 1572
1520 1522 1524 1525 1527 1529 1531 1532 1534 1536 1537 1538 1540 1541 1542 1544 1545 1546 1547 1548 1549 1550 1551 1552 1554 1555 1556 1557 1559 1560 1561 1563 1564 1565 1566 1567 1568 1569 1569 1570 1571 1571 1572
1519 1521 1522 1524 1525 1527 1529 1531 1532 1534 1535 1537 1539 1540 1541 1543 1544 1546 1547 1548 1549 1550 1551 1552 1553 1555 1556 1557 1558 1560 1561 1562 1564 1565 1566 1567 1568 1569 1569 1570 1571 1571 1572
1518 1519 1521 1522 1524 1525 1527 1528 1530 1532 1533 1535 1537 1538 1540 1541 1543 1544 1546 1547 1548 1549 1550 1552 1553 1554 1555 1557 1558 1559 1561 1562 1563 1565 1566 1567 1568 1569 1570 1570 1571 1571 1572
1516 1518 1519 1521 1522 1523 1525 1526 1528 1529 1531 1533 1535 1536 1538 1540 1541 1543 1544 1546 1547 1548 1549 1551 1552 1553 1555 1556 1557 1559 1560 1561 1563 1564 1565 1567 1568 1569 1569 1570 1571 1571 1572
1514 1516 1517 1519 1520 1521 1523 1524 1525 1527 1529 1530 1532 1534 1536 1538 1539 1541 1543 1544 1546 1547 1549 1550 1551 1552 1554 1555 1556 1558 1559 1561 1562 1563 1564 1566 1567 1568 1569 1570 1570 1571 1571
1512 1514 1515 1516 1517 1519 1520 1522 1523 1524 1526 1528 1530 1532 1534 1535 1537 1539 1540 1542 1544 1545 1547 1548 1550 1551 1552 1554 1555 1557 1558 1560 1561 1562 1563 1565 1566 1567 1568 1569 1569 1570 1571
1509 1510 1512 1513 1514 1516 1517 1519 1521 1522 1523 1525 1527 1529 1531 1533 1535 1536 1538 1540 1541 1543 1544 1546 1548 1549 1551 1552 1554 1555 1557 1559 1560 1561 1562 1564 1565 1566 1567 1568 1568 1569 1569
1506 1507 1508 1510 1511 1513 1514 1516 1518 1519 1520 1522 1524 1526 1528 1530 1532 1534 1535 1537 1539 1540 1542 1544 1545 1547 1548 1550 1552 1554 1555 1557 1558 1560 1561 1562 1563 1564 1565 1566 1567 1568 1568
1503 1504 1505 1506 1508 1510 1511 1513 1515 1517 1518 1519 1521 1523 1525 1527 1529 1531 1532 1534 1536 1538 1539 1541 1543 1545 1546 1548 1550 1552 1553 1555 1556 1558 1559 1560 1561 1562 1564 1565 1565 1566 1566
1498 1500 1501 1503 1505 1506 1508 1509 1511 1513 1514 1516 1518 1520 1522 1524 1526 1527 1529 1531 1533 1534 1536 1538 1539 1541 1543 1545 1547 1549 1551 1553 1554 1555 1557 1558 1559 1560 1561 1562 1563 1564 1564
1495 1496 1497 1499 1501 1503 1504 1506 1508 1510 1511 1513 1515 1517 1518 1520 1522 1524 1526 1527 1529 1531 1532 1534 1536 1538 1540 1542 1544 1546 1548 1551 1551 1553 1554 1555 1557 1558 1559 1560 1561 1562 1562
1491 1493 1494 1496 1498 1499 1501 1503 1505 1507 1508 1509 1511 1513 1514 1517 1518 1520 1522 1524 1526 1527 1528 1530 1532 1534 1536 1539 1541 1543 1545 1545 1548 1550 1550 1552 1554 1555 1556 1557 1558 1559 1560
1488 1489 1491 1493 1494 1496 1497 1499 1500 1501 1503 1505 1507 1508 1511 1513 1514 1516 1518 1521 1522 1524 1525 1527 1529 1531 1533 1535 1537 1540 1542 1542 1544 1545 1548 1549 1550 1551 1553 1554 1555 1556 1557
1485 1486 1487 1489 1491 1492 1494 1495 1497 1498 1500 1501 1503 1505 1507 1509 1510 1512 1514 1516 1518 1520 1521 1523 1525 1527 1529 1530 1533 1535 1537 1539 1540 1541 1542 1544 1546 1547 1549 1550 1551 1552 1554
1482 1483 1484 1486 1487 1488 1490 1491 1493 1494 1496 1497 1499 1500 1502 1504 1506 1508 1509 1511 1514 1516 1517 1519 1521 1523 1525 1527 1529 1531 1533 1535 1536 1537 1538 1539 1540 1542 1544 1545 1547 1548 1550